Satellite: NOAA-12
Catalog number: 21263
Epoch time: 07262.91843758
Element set: 0346
Inclination: 098.7591 deg
RA of node: 260.0282 deg
Eccentricity: 0.0012288
Arg of perigee: 188.9470 deg
Mean anomaly: 171.1491 deg
Mean motion: 14.25493244 rev/day
Decay rate: -1.05e-06 rev/day^2
Epoch rev: 84974
Checksum: 320
Satellite: MET-3/5
Catalog number: 21655
Epoch time: 07262.83043966
Element set: 323
Inclination: 082.5544 deg
RA of node: 296.0832 deg
Eccentricity: 0.0013268
Arg of perigee: 338.1194 deg
Mean anomaly: 021.9361 deg
Mean motion: 13.17012264 rev/day
Decay rate: 5.1e-07 rev/day^2
Epoch rev: 77386
Checksum: 295
Satellite: MET-2/21
Catalog number: 22782
Epoch time: 07262.74010054
Element set: 0938
Inclination: 082.5507 deg
RA of node: 326.9131 deg
Eccentricity: 0.0021829
Arg of perigee: 335.2138 deg
Mean anomaly: 024.7991 deg
Mean motion: 13.83617935 rev/day
Decay rate: 8.5e-07 rev/day^2
Epoch rev: 70959
Checksum: 315
Satellite: OKEAN-4
Catalog number: 23317
Epoch time: 07263.81953955
Element set: 376
Inclination: 082.5406 deg
RA of node: 207.3091 deg
Eccentricity: 0.0020729
Arg of perigee: 300.8162 deg
Mean anomaly: 059.1057 deg
Mean motion: 14.82533819 rev/day
Decay rate: 1.67e-06 rev/day^2
Epoch rev: 69822
Checksum: 308
Satellite: NOAA-14
Catalog number: 23455
Epoch time: 07262.77575013
Element set: 0822
Inclination: 098.9800 deg
RA of node: 329.4270 deg
Eccentricity: 0.0009389
Arg of perigee: 187.6231 deg
Mean anomaly: 172.4790 deg
Mean motion: 14.13724418 rev/day
Decay rate: -3.05e-06 rev/day^2
Epoch rev: 65600
Checksum: 307
Satellite: SICH-1
Catalog number: 23657
Epoch time: 07263.79085791
Element set: 176
Inclination: 082.5314 deg
RA of node: 348.2959 deg
Eccentricity: 0.0022354
Arg of perigee: 290.8334 deg
Mean anomaly: 069.0473 deg
Mean motion: 14.81512168 rev/day
Decay rate: -3.1e-07 rev/day^2
Epoch rev: 65018
Checksum: 312
Satellite: NOAA-15
Catalog number: 25338
Epoch time: 07262.84482748
Element set: 0165
Inclination: 098.5391 deg
RA of node: 256.8911 deg
Eccentricity: 0.0011610
Arg of perigee: 111.2890 deg
Mean anomaly: 248.9502 deg
Mean motion: 14.24664384 rev/day
Decay rate: -6.7e-07 rev/day^2
Epoch rev: 48616
Checksum: 321
Satellite: RESURS
Catalog number: 25394
Epoch time: 07262.70512996
Element set: 0755
Inclination: 098.4292 deg
RA of node: 313.4493 deg
Eccentricity: 0.0000871
Arg of perigee: 311.8891 deg
Mean anomaly: 048.2214 deg
Mean motion: 14.24145518 rev/day
Decay rate: -6.0e-08 rev/day^2
Epoch rev: 47780
Checksum: 304
Satellite: FENGYUN1
Catalog number: 25730
Epoch time: 07263.88682046
Element set: 225
Inclination: 098.6966 deg
RA of node: 244.1598 deg
Eccentricity: 0.0017427
Arg of perigee: 214.6163 deg
Mean anomaly: 145.3873 deg
Mean motion: 14.07604018 rev/day
Decay rate: 8.2e-07 rev/day^2
Epoch rev: 43093
Checksum: 309
Satellite: OKEAN-0
Catalog number: 25860
Epoch time: 07262.62474738
Element set: 162
Inclination: 097.7358 deg
RA of node: 260.4849 deg
Eccentricity: 0.0001927
Arg of perigee: 071.4962 deg
Mean anomaly: 288.6446 deg
Mean motion: 14.73473630 rev/day
Decay rate: 2.4e-07 rev/day^2
Epoch rev: 43940
Checksum: 321
Satellite: NOAA-16
Catalog number: 26536
Epoch time: 07262.90073025
Element set: 0603
Inclination: 099.1282 deg
RA of node: 241.5380 deg
Eccentricity: 0.0009646
Arg of perigee: 267.9963 deg
Mean anomaly: 092.0083 deg
Mean motion: 14.12451620 rev/day
Decay rate: -1.30e-06 rev/day^2
Epoch rev: 36047
Checksum: 285
Satellite: NOAA-17
Catalog number: 27453
Epoch time: 07262.75027487
Element set: 0605
Inclination: 098.5714 deg
RA of node: 329.7486 deg
Eccentricity: 0.0012031
Arg of perigee: 174.5050 deg
Mean anomaly: 185.6273 deg
Mean motion: 14.23908870 rev/day
Decay rate: -1.12e-06 rev/day^2
Epoch rev: 27217
Checksum: 307
Satellite: NOAA-18
Catalog number: 28654
Epoch time: 07262.77232749
Element set: 0130
Inclination: 098.8335 deg
RA of node: 202.4890 deg
Eccentricity: 0.0014669
Arg of perigee: 004.9853 deg
Mean anomaly: 355.1480 deg
Mean motion: 14.11093889 rev/day
Decay rate: -8.8e-07 rev/day^2
Epoch rev: 12019
Checksum: 323
/EX
SB KEPS @ AMSAT $ORB07263.M
Orbital Elements 07263.MISC
HR AMSAT ORBITAL ELEMENTS FOR MANNED AND MISCELLANEOUS SATELLITES
FROM WA5QGD FORT WORTH,TX September 20, 2007
Send Subscribe/unsubscribe to KEPS at
http://www.amsat.org/mailman/listinfo/keps
BID: ORB07263.M
TO ALL RADIO AMATEURS BT
Satellite: HUBBLE
Catalog number: 20580
Epoch time: 07262.53880507
Element set: 0975
Inclination: 028.4693 deg
RA of node: 294.8455 deg
Eccentricity: 0.0003389
Arg of perigee: 024.9382 deg
Mean anomaly: 335.1373 deg
Mean motion: 15.00279806 rev/day
Decay rate: 3.13e-06 rev/day^2
Epoch rev: 75414
Checksum: 309
Satellite: UARS
Catalog number: 21701
Epoch time: 07262.97967444
Element set: 0191
Inclination: 056.9741 deg
RA of node: 262.3453 deg
Eccentricity: 0.0092459
Arg of perigee: 019.3928 deg
Mean anomaly: 341.0610 deg
Mean motion: 15.48890012 rev/day
Decay rate: 3.727e-05 rev/day^2
Epoch rev: 88043
Checksum: 310
Satellite: PO-34
Catalog number: 25520
Epoch time: 07262.97437841
Element set: 0827
Inclination: 028.4594 deg
RA of node: 194.3276 deg
Eccentricity: 0.0005696
Arg of perigee: 207.6110 deg
Mean anomaly: 152.4175 deg
Mean motion: 15.17049310 rev/day
Decay rate: 3.63e-06 rev/day^2
Epoch rev: 49193
Checksum: 309
Satellite: ISS
Catalog number: 25544
Epoch time: 07263.80193565
Element set: 15
Inclination: 051.6364 deg
RA of node: 330.5281 deg
Eccentricity: 0.0010049
Arg of perigee: 030.4213 deg
Mean anomaly: 072.6501 deg
Mean motion: 15.76926302 rev/day
Decay rate: 8.956e-05 rev/day^2
Epoch rev: 50586
Checksum: 277
Satellite: OO-38
Catalog number: 26063
Epoch time: 07263.63780739
Element set: 15
Inclination: 100.2281 deg
RA of node: 283.8991 deg
Eccentricity: 0.0036502
Arg of perigee: 251.3583 deg
Mean anomaly: 108.3624 deg
Mean motion: 14.35815102 rev/day
Decay rate: -3.5e-07 rev/day^2
Epoch rev: 40074
Checksum: 281
Satellite: UWE-1
Catalog number: 28892
Epoch time: 07262.75045087
Element set: 0853
Inclination: 098.1167 deg
RA of node: 157.4584 deg
Eccentricity: 0.0017375
Arg of perigee: 173.5066 deg
Mean anomaly: 186.6378 deg
Mean motion: 14.59540961 rev/day
Decay rate: 1.24e-06 rev/day^2
Epoch rev: 10100
Checksum: 318
Satellite: CO-58
Catalog number: 28895
Epoch time: 07263.27461860
Element set: 830
Inclination: 098.1188 deg
RA of node: 158.2192 deg
Eccentricity: 0.0018074
Arg of perigee: 172.6972 deg
Mean anomaly: 187.4484 deg
Mean motion: 14.59584011 rev/day
Decay rate: -4.0e-08 rev/day^2
Epoch rev: 10096
Checksum: 332
Satellite: NCUBE2
Catalog number: 28897
Epoch time: 07262.24205220
Element set: 0356
Inclination: 098.1188 deg
RA of node: 157.1571 deg
Eccentricity: 0.0017109
Arg of perigee: 176.7218 deg
Mean anomaly: 183.4089 deg
Mean motion: 14.59748709 rev/day
Decay rate: 8.5e-07 rev/day^2
Epoch rev: 09309
Checksum: 327
Satellite: FCAL
Catalog number: 29667
Epoch time: 07263.55700620
Element set: 336
Inclination: 051.6329 deg
RA of node: 312.9392 deg
Eccentricity: 0.0013510
Arg of perigee: 004.0557 deg
Mean anomaly: 356.0592 deg
Mean motion: 15.91501288 rev/day
Decay rate: 1.3672e-04 rev/day^2
Epoch rev: 4317
Checksum: 282
Satellite: FALCON
Catalog number: 30776
Epoch time: 07262.66365084
Element set: 0154
Inclination: 035.4345 deg
RA of node: 359.9121 deg
Eccentricity: 0.0001161
Arg of perigee: 249.2352 deg
Mean anomaly: 110.8239 deg
Mean motion: 15.02765232 rev/day
Decay rate: 1.53e-06 rev/day^2
Epoch rev: 02927
Checksum: 273
Satellite: MAST
Catalog number: 31126
Epoch time: 07263.74908655
Element set: 138
Inclination: 098.0740 deg
RA of node: 333.4898 deg
Eccentricity: 0.0095779
Arg of perigee: 089.6515 deg
Mean anomaly: 271.5620 deg
Mean motion: 14.53365219 rev/day
Decay rate: 3.44e-06 rev/day^2
Epoch rev: 2273
Checksum: 320
Satellite: CAPE1
Catalog number: 31130
Epoch time: 07262.66842284
Element set: 0121
Inclination: 098.0750 deg
RA of node: 332.0850 deg
Eccentricity: 0.0104105
Arg of perigee: 093.9962 deg
Mean anomaly: 267.3140 deg
Mean motion: 14.51885248 rev/day
Decay rate: 9.6e-07 rev/day^2
Epoch rev: 02232
Checksum: 272
/EX
More information about the Keps
mailing list